[[{"header":{"parameterUnit":"m.s-1","parameterCategory":2,"la1":30.2991,"la2":30.254,"lo1":-89.0895,"lo2":-89.0444,"dy":0.0017,"dx":0.0017,"nx":28,"ny":28,"refTime":"2025-05-20T03:00:00:Z","depth":"0","parameterNumber":2,"parameterNumberName":"U-component_of_CURRENTS"},"data":[0,0,0,0,0,0,0,0,0,0,0,0,0,0,0,0,0,0,0,0,0,0,0,0,0,0,0,0,0,0,0,0,0,0,0,0,0,0,0,0,0,0,0,0,0,0,0,0,0,0,0,0,0,0,0,0,0,0,0.3192,0.3193,0,0.3291,0.3292,0.3293,0.3246,0.3244,0.3241,0.3239,0.3213,0.3214,0.3216,0,0,0,0,0,0,0,0,0,0,0,0,0,0.3055,0.3057,0.3192,0.3193,0.3195,0.3291,0.3292,0.3293,0.3246,0.3244,0.3241,0.3238,0.3212,0.3214,0.3216,0,0,0,0,0,0,0,0,0,0,0,0,0,0.3129,0.3058,0.3192,0.3184,0.3184,0.3291,0.3292,0.3294,0.3247,0.3243,0.324,0.3237,0.3212,0.3214,0.3216,0.3301,0,0,0.3223,0.3224,0,0,0,0,0,0,0,0,0.3124,0.3133,0.3184,0.3185,0.3185,0.3254,0.3234,0.329,0.3248,0.3222,0.3239,0.3235,0.3219,0.322,0.3246,0.33,0.3299,0.3223,0.3225,0.3225,0.3226,0,0,0,0,0,0,0,0.3119,0.313,0.3229,0.3186,0.3187,0.3208,0.3213,0.3246,0.3235,0.3224,0.3221,0.3236,0.3217,0.3244,0.3245,0.3299,0.3223,0.3225,0.3226,0.3227,0.3339,0.334,0,0,0,0,0,0,0.311,0.3125,0.3226,0.3233,0.3147,0.3213,0.3219,0.3234,0.3238,0.3236,0.3239,0.3233,0.3242,0.3242,0.3243,0.3276,0.3225,0.3228,0.3229,0.3337,0.3339,0.3341,0,0,0,0,0,0,0.3107,0.3118,0.3222,0.3182,0.3196,0.3218,0.3237,0.3238,0.3251,0.3251,0.3245,0.3248,0.3239,0.324,0.3231,0.3277,0.3229,0.3231,0.3335,0.3338,0.334,0.3385,0,0,0,0,0,0,0.3102,0.3117,0.3131,0.3181,0.3198,0.3288,0.324,0.3243,0.3268,0.3261,0.3258,0.3252,0.3237,0.3228,0.3234,0.3279,0.3232,0.3333,0.3337,0.3339,0.3382,0.3389,0.3395,0,0,0,0,0,0.3097,0.3138,0.3131,0.3144,0.3216,0.329,0.3302,0.3303,0.3271,0.3297,0.3257,0.3252,0.3252,0.323,0.3237,0.3284,0.3332,0.3336,0.3339,0.3379,0.3387,0.3395,0,0,0,0,0,0,0.3087,0.3139,0.3132,0.3184,0.3231,0.3282,0.3318,0.3312,0.3312,0.3291,0.3263,0.3257,0.3271,0.3274,0.3251,0.3326,0.3298,0.3303,0.3326,0.3334,0.3341,0.3349,0.3234,0,0,0,0,0,0.3094,0.313,0.3182,0.3222,0.3252,0.3284,0.3314,0.3316,0.3324,0.3321,0.3309,0.3299,0.3304,0.3307,0.3316,0.3359,0.336,0.3398,0.3404,0.341,0.3422,0.3461,0.3472,0.3353,0.3353,0.3353,0,0,0.3103,0.3134,0.3155,0.3222,0.326,0.3318,0.3293,0.3348,0.3373,0.3321,0.3338,0.3323,0.3318,0.3348,0.336,0.3348,0.344,0.3415,0.3419,0.3428,0.3465,0.3477,0.3487,0.3355,0.3355,0.3354,0,0,0.3154,0.3169,0.3225,0.327,0.3331,0.3349,0.3364,0.3412,0.341,0.3433,0.3391,0.3389,0.3413,0.341,0.3412,0.3471,0.347,0.3488,0.3536,0.3573,0.3583,0.3591,0.3585,0.3593,0.3497,0.3497,0.3497,0,0.3165,0.3227,0.3255,0.3324,0.3351,0.3362,0.3418,0.3445,0.347,0.3467,0.3438,0.3461,0.3446,0.3481,0.3487,0.3488,0.3494,0.3501,0.3581,0.359,0.3598,0.359,0.3598,0.3499,0.3499,0.3499,0.3498,0,0.3265,0.3307,0.335,0.3419,0.3455,0.351,0.3538,0.3558,0.3541,0.3551,0.3572,0.3556,0.3564,0.3573,0.3541,0.3605,0.3583,0.3579,0.3558,0.3613,0.36,0.3608,0.3503,0.3502,0.3501,0.3501,0,0,0.3282,0.3399,0.3403,0.3425,0.3499,0.3525,0.3576,0.3612,0.3619,0.3649,0.3669,0.368,0.3667,0.3669,0.3651,0.3681,0.3722,0.3657,0.3658,0.3645,0.3781,0.3661,0.3657,0.3738,0.374,0.3742,0.374,0,0.334,0.3455,0.3494,0.3555,0.3603,0.3616,0.3648,0.3672,0.3679,0.3705,0.3716,0.3732,0.371,0.3706,0.374,0.3719,0.375,0.3722,0.3735,0.3735,0.3618,0.3665,0.3575,0.3558,0.3747,0.3749,0.3749,0,0.3405,0.3461,0.3553,0.3583,0.3602,0.3635,0.3643,0.3679,0.3727,0.3736,0.3779,0.3787,0.3827,0.3805,0.3838,0.3822,0.3814,0.3805,0.3805,0.3686,0.3631,0.354,0.3565,0.3575,0.3761,0.376,0.3759,0,0.3364,0.347,0.3522,0.355,0.362,0.3628,0.3643,0.3681,0.3687,0.3763,0.3774,0.3842,0.3848,0.3888,0.3856,0.3861,0.388,0.3882,0.3774,0.3764,0.3686,0.3664,0.3718,0.3933,0.3933,0.3933,0.3933,0,0.3386,0.3407,0.3504,0.3532,0.354,0.3596,0.3598,0.3632,0.3683,0.3691,0.3781,0.38,0.3872,0.3883,0.3884,0.3829,0.3904,0.3788,0.3767,0.3694,0.3674,0.3675,0.3668,0.3933,0.3933,0.3933,0.3933,0,0.3325,0.3409,0.345,0.3523,0.3529,0.3527,0.3547,0.3553,0.3617,0.364,0.3668,0.3763,0.3781,0.3815,0.385,0.382,0.3713,0.3774,0.3654,0.3618,0.3512,0.3509,0.3272,0.3196,0.3669,0.3666,0.3664,0,0.3301,0.3335,0.3413,0.3412,0.3439,0.3446,0.3443,0.3507,0.3522,0.3598,0.3608,0.3659,0.3663,0.3662,0.3648,0.3628,0.3588,0.3526,0.3524,0.3497,0.3482,0.329,0.3233,0.3436,0.3432,0.3429,0.3426,0,0.3227,0.3271,0.3316,0.3324,0.3325,0.3322,0.3335,0.3338,0.3415,0.3421,0.3441,0.3458,0.3487,0.3442,0.3425,0.341,0.3384,0.3454,0.349,0.3351,0.3085,0.3005,0.3423,0.3397,0.34,0.3402,0.3404,0.3405,0.3145,0.3161,0.3219,0.3207,0.3201,0.3178,0.312,0.3152,0.3132,0.311,0.3236,0.3195,0.3311,0.3276,0.3225,0.3183,0.3128,0.3176,0.3187,0.3003,0.2885,0.3199,0.3105,0.3107,0.3108,0.3109,0.3109,0,0.3018,0.3062,0.3071,0.3055,0.2977,0.3027,0.3011,0.2926,0.2836,0.2908,0.288,0.2958,0.2965,0.3042,0.308,0.2997,0.2831,0.2957,0.2761,0.2734,0.3108,0.3062,0.2878,0.2878,0.2878,0.2878,0.2878,0.2878,0.2959,0.2939,0.2966,0.2824,0.279,0.2661,0.2621,0.2527,0.253,0.2466,0.2486,0.2568,0.2835,0.2996,0.299,0.2926,0.2778,0.2574,0.2594,0.3009,0.3034,0.3057,0.3018,0.2827,0.2827,0.2115,0.2111,0.2107]},{"header":{"parameterUnit":"m.s-1","parameterCategory":2,"la1":30.2991,"la2":30.254,"lo1":-89.0895,"lo2":-89.0444,"dy":0.0017,"dx":0.0017,"nx":28,"ny":28,"refTime":"2025-05-20T03:00:00:Z","depth":"0","parameterNumber":3,"parameterNumberName":"V-component_of_CURRENTS"},"data":[0,0,0,0,0,0,0,0,0,0,0,0,0,0,0,0,0,0,0,0,0,0,0,0,0,0,0,0,0,0,0,0,0,0,0,0,0,0,0,0,0,0,0,0,0,0,0,0,0,0,0,0,0,0,0,0,0,0,0.0368,0.0368,0,0.043,0.0431,0.0432,0.0438,0.0437,0.0436,0.0435,0.0434,0.0435,0.0436,0,0,0,0,0,0,0,0,0,0,0,0,0,0.0267,0.0269,0.0368,0.0368,0.0369,0.043,0.0431,0.0432,0.0438,0.0437,0.0435,0.0434,0.0434,0.0435,0.0436,0,0,0,0,0,0,0,0,0,0,0,0,0,0.0321,0.0269,0.0368,0.0377,0.0378,0.043,0.0431,0.0433,0.0438,0.0437,0.0435,0.0434,0.0433,0.0434,0.0436,0.0473,0,0,0.044,0.044,0,0,0,0,0,0,0,0,0.0318,0.0325,0.0375,0.0376,0.0377,0.0422,0.0395,0.0442,0.0438,0.0419,0.0435,0.0433,0.0423,0.0425,0.0445,0.0473,0.0473,0.044,0.0441,0.0441,0.0442,0,0,0,0,0,0,0,0.0314,0.0323,0.0396,0.0375,0.0377,0.0381,0.0388,0.0405,0.0429,0.042,0.042,0.0422,0.0423,0.0444,0.0445,0.0473,0.044,0.0441,0.0442,0.0442,0.0505,0.0505,0,0,0,0,0,0,0.0301,0.0319,0.0394,0.0397,0.034,0.0384,0.0392,0.0412,0.0431,0.0432,0.0423,0.0422,0.0443,0.0444,0.0445,0.0489,0.0441,0.0442,0.0443,0.0504,0.0505,0.0506,0,0,0,0,0,0,0.0299,0.0308,0.0391,0.0356,0.0366,0.0387,0.041,0.0414,0.0433,0.0433,0.0433,0.0438,0.0442,0.0443,0.046,0.0488,0.0443,0.0444,0.0503,0.0504,0.0505,0.0576,0,0,0,0,0,0,0.0297,0.0308,0.0322,0.0356,0.0368,0.0431,0.0411,0.0416,0.0435,0.0434,0.0446,0.0445,0.0441,0.0458,0.0461,0.0489,0.0445,0.0502,0.0503,0.0505,0.0572,0.0579,0.0585,0,0,0,0,0,0.0293,0.0322,0.0323,0.0332,0.0386,0.0432,0.0441,0.0451,0.0437,0.0461,0.0457,0.0444,0.047,0.0461,0.0464,0.0493,0.0501,0.0503,0.0505,0.0569,0.0578,0.0585,0,0,0,0,0,0,0.0299,0.0326,0.0328,0.0367,0.0398,0.0432,0.0454,0.0457,0.0477,0.0471,0.0462,0.0462,0.0487,0.0478,0.0467,0.0512,0.0481,0.0484,0.0529,0.0537,0.0544,0.055,0.0446,0,0,0,0,0,0.0304,0.0325,0.0357,0.039,0.0406,0.043,0.0448,0.0459,0.0477,0.0485,0.0491,0.0492,0.0501,0.0508,0.0517,0.0548,0.051,0.0564,0.0571,0.0577,0.0583,0.0545,0.0549,0.0512,0.0512,0.0512,0,0,0.0314,0.0331,0.0344,0.039,0.0414,0.046,0.0439,0.0477,0.0512,0.0481,0.0528,0.0519,0.0513,0.0546,0.0556,0.0541,0.0566,0.0579,0.0584,0.0587,0.0548,0.0551,0.0554,0.0513,0.0513,0.0513,0,0,0.0351,0.0364,0.0397,0.0427,0.0463,0.0483,0.0493,0.0533,0.0546,0.0586,0.0567,0.0575,0.0598,0.0603,0.0604,0.0652,0.06,0.0649,0.0693,0.0657,0.0659,0.0661,0.061,0.0606,0.0654,0.0654,0.0654,0,0.0363,0.0413,0.0416,0.0461,0.0494,0.0495,0.0552,0.0573,0.0612,0.0631,0.0606,0.0638,0.0629,0.0665,0.0673,0.0669,0.0626,0.0666,0.0665,0.0666,0.0666,0.0613,0.0609,0.0657,0.0657,0.0657,0.0656,0,0.0433,0.0471,0.0496,0.0551,0.0587,0.0636,0.0663,0.0696,0.0701,0.0718,0.0751,0.0734,0.0753,0.0746,0.0723,0.0734,0.0693,0.0675,0.0645,0.0674,0.0616,0.061,0.0663,0.0661,0.066,0.0659,0,0,0.046,0.0532,0.0542,0.0582,0.064,0.0682,0.0738,0.0797,0.084,0.0844,0.0895,0.0887,0.0866,0.0865,0.0836,0.0796,0.0755,0.0735,0.0731,0.0685,0.0652,0.0639,0.0631,0.0726,0.0726,0.0725,0.0607,0,0.0517,0.0614,0.0638,0.0732,0.0784,0.0809,0.0867,0.0912,0.0934,0.098,0.095,0.098,0.0915,0.0922,0.0875,0.0792,0.0742,0.0787,0.0631,0.0626,0.0612,0.0626,0.0648,0.0546,0.06,0.0599,0.0598,0,0.0577,0.0632,0.0736,0.0824,0.0853,0.0908,0.1001,0.1055,0.1102,0.1117,0.1127,0.1102,0.107,0.1001,0.0864,0.0889,0.0777,0.0693,0.0687,0.0648,0.0603,0.0527,0.0532,0.0459,0.0588,0.0589,0.059,0,0.0592,0.0699,0.0784,0.0818,0.0918,0.0969,0.1027,0.1095,0.1158,0.1202,0.1239,0.1194,0.1177,0.1038,0.0872,0.086,0.0698,0.0667,0.0548,0.0545,0.0522,0.0518,0.0441,0.056,0.056,0.056,0.0561,0,0.0641,0.0703,0.0797,0.0842,0.0946,0.1004,0.1115,0.1165,0.1251,0.1339,0.1305,0.1345,0.1178,0.1077,0.0904,0.0712,0.0723,0.0557,0.0519,0.0547,0.0547,0.0448,0.0377,0.0556,0.0557,0.0558,0.0559,0,0.0643,0.0705,0.0798,0.0912,0.0953,0.1026,0.1172,0.1261,0.1321,0.1433,0.1452,0.1443,0.1317,0.1133,0.0911,0.0766,0.0524,0.0503,0.0541,0.0511,0.0346,0.0278,0.0155,0.0115,0.0359,0.0358,0.0357,0,0.0658,0.0706,0.0836,0.0904,0.0958,0.1075,0.1174,0.1281,0.1389,0.1498,0.1564,0.149,0.1465,0.1145,0.0874,0.0588,0.0483,0.0421,0.0413,0.0345,0.0241,0.0231,0.0206,0.0397,0.0396,0.0396,0.0396,0,0.0678,0.072,0.0801,0.0939,0.1048,0.118,0.1328,0.1425,0.1567,0.1651,0.1744,0.1726,0.1459,0.1216,0.0845,0.0632,0.0389,0.0406,0.0327,0.0261,0.0252,0.0194,0.0454,0.0393,0.0393,0.0393,0.0393,0.0394,0.0687,0.075,0.0865,0.0994,0.1124,0.1293,0.1415,0.157,0.1731,0.1898,0.187,0.1894,0.1576,0.1085,0.0778,0.0348,0.0345,0.0241,0.0159,0.0154,0.014,0.0393,0.0303,0.0303,0.0302,0.0302,0.0302,0,0.071,0.08,0.0927,0.1094,0.124,0.1306,0.1535,0.1663,0.185,0.2004,0.207,0.1997,0.1546,0.1112,0.0516,0.0194,0.0091,0.0031,0.0023,0.0003,0.0221,0.0251,0.0158,0.0158,0.0158,0.0159,0.0159,0.0159,0.0737,0.0851,0.0931,0.1164,0.129,0.1502,0.1637,0.1803,0.1967,0.219,0.2295,0.2356,0.2142,0.0982,0.0255,0.0032,-0.0149,-0.0211,-0.0293,-0.0142,-0.0127,-0.0113,-0.0096,-0.0261,-0.0262,-0.0425,-0.0428,-0.0429]}],[{"header":{"parameterUnit":"m.s-1","parameterCategory":2,"la1":30.2991,"la2":30.254,"lo1":-89.0895,"lo2":-89.0444,"dy":0.0017,"dx":0.0017,"nx":28,"ny":28,"refTime":"2025-05-20T03:00:00:Z","depth":"2","parameterNumber":2,"parameterNumberName":"U-component_of_CURRENTS"},"data":[0,0,0,0,0,0,0,0,0,0,0,0,0,0,0,0,0,0,0,0,0,0,0,0,0,0,0,0,0,0,0,0,0,0,0,0,0,0,0,0,0,0,0,0,0,0,0,0,0,0,0,0,0,0,0,0,0,0,0.3061,0.3062,0,0.3197,0.3199,0.3201,0.3174,0.3172,0.3169,0.3167,0.3139,0.314,0.3142,0,0,0,0,0,0,0,0,0,0,0,0,0,0.2914,0.2916,0.3061,0.3063,0.3064,0.3197,0.3199,0.3201,0.3175,0.3172,0.3169,0.3166,0.3138,0.314,0.3142,0,0,0,0,0,0,0,0,0,0,0,0,0,0.3006,0.2916,0.3061,0.3067,0.3069,0.3197,0.3199,0.3201,0.3176,0.3172,0.3168,0.3165,0.3138,0.314,0.3142,0.3231,0,0,0.3149,0.315,0,0,0,0,0,0,0,0,0.3001,0.3012,0.3064,0.3067,0.3069,0.3165,0.3137,0.3203,0.3176,0.3135,0.3167,0.3163,0.3135,0.3137,0.3174,0.3229,0.3228,0.315,0.3151,0.3152,0.3153,0,0,0,0,0,0,0,0.2994,0.3007,0.3115,0.3067,0.307,0.311,0.3118,0.3151,0.3151,0.3139,0.3137,0.3153,0.3134,0.3172,0.3172,0.3228,0.3149,0.3152,0.3153,0.3154,0.3268,0.3269,0,0,0,0,0,0,0.2975,0.3,0.3111,0.3119,0.3025,0.3115,0.3124,0.3138,0.3154,0.3155,0.3156,0.3152,0.317,0.317,0.3171,0.3204,0.3152,0.3154,0.3155,0.3266,0.3268,0.327,0,0,0,0,0,0,0.2971,0.2984,0.3105,0.3062,0.308,0.312,0.3138,0.3143,0.3171,0.317,0.3166,0.3177,0.3167,0.3168,0.3156,0.3204,0.3155,0.3157,0.3264,0.3267,0.3269,0.3315,0,0,0,0,0,0,0.2967,0.2981,0.3006,0.3061,0.3082,0.3186,0.3141,0.3148,0.3187,0.3182,0.3187,0.3181,0.3164,0.3152,0.3158,0.3207,0.3159,0.3262,0.3266,0.3268,0.3312,0.3319,0.3325,0,0,0,0,0,0.2961,0.3012,0.3006,0.302,0.3107,0.3188,0.3204,0.322,0.3192,0.3227,0.3184,0.318,0.3177,0.3154,0.3161,0.3212,0.3261,0.3265,0.3268,0.3309,0.3318,0.3325,0,0,0,0,0,0,0.296,0.3016,0.301,0.3073,0.3124,0.3183,0.3231,0.3232,0.324,0.3218,0.319,0.3184,0.3197,0.32,0.3176,0.3255,0.3226,0.3231,0.3254,0.3263,0.327,0.3277,0.3161,0,0,0,0,0,0.2973,0.3016,0.3071,0.3117,0.315,0.319,0.3229,0.3236,0.3246,0.3248,0.3238,0.3228,0.3231,0.3234,0.3241,0.3287,0.3283,0.3328,0.3335,0.3341,0.3352,0.3386,0.3397,0.3282,0.3282,0.3282,0,0,0.2985,0.3019,0.3044,0.312,0.3161,0.3225,0.3205,0.3268,0.3296,0.3244,0.3267,0.3251,0.3244,0.3275,0.3286,0.3276,0.3367,0.3345,0.335,0.3358,0.3391,0.3402,0.3412,0.3285,0.3284,0.3284,0,0,0.3034,0.3062,0.312,0.3171,0.3238,0.3263,0.3279,0.3335,0.3338,0.3364,0.3321,0.3316,0.3343,0.3338,0.3339,0.3398,0.3396,0.3419,0.3468,0.3501,0.3511,0.3519,0.3503,0.351,0.3429,0.3429,0.3429,0,0.3053,0.3114,0.3152,0.3223,0.3258,0.3276,0.3336,0.3369,0.3399,0.3397,0.3369,0.3391,0.3377,0.3407,0.3414,0.3416,0.3418,0.3432,0.3509,0.3518,0.3526,0.3508,0.3514,0.3432,0.3432,0.3431,0.3431,0,0.3153,0.3196,0.324,0.3314,0.3361,0.3421,0.3455,0.3481,0.347,0.3484,0.3503,0.3485,0.3492,0.3503,0.3471,0.3533,0.3508,0.3506,0.3485,0.354,0.3517,0.3523,0.3436,0.3435,0.3434,0.3433,0,0,0.3181,0.3292,0.3295,0.3318,0.3406,0.344,0.3494,0.3538,0.3545,0.3579,0.36,0.3608,0.3596,0.3597,0.3579,0.3607,0.3642,0.3585,0.3586,0.3562,0.3688,0.3555,0.3548,0.3661,0.3663,0.3665,0.364,0,0.3236,0.3351,0.3389,0.3455,0.3508,0.353,0.3564,0.3595,0.3607,0.3635,0.3644,0.3659,0.3637,0.3634,0.3666,0.3638,0.3666,0.3647,0.3645,0.3644,0.3515,0.3555,0.3301,0.3249,0.3646,0.3647,0.3647,0,0.3301,0.3361,0.3454,0.3485,0.3508,0.3546,0.3568,0.3606,0.3654,0.3663,0.3705,0.3714,0.3748,0.373,0.3747,0.3738,0.3727,0.3713,0.3712,0.358,0.3524,0.3265,0.3245,0.3657,0.3657,0.3656,0.3655,0,0.327,0.3372,0.3428,0.346,0.3535,0.3546,0.3567,0.3608,0.3613,0.3692,0.3702,0.3763,0.3766,0.3799,0.3756,0.3768,0.3763,0.3773,0.3648,0.3637,0.3416,0.3381,0.3818,0.3818,0.3818,0.3818,0.3818,0,0.3296,0.3318,0.3414,0.3448,0.3461,0.3521,0.3527,0.3562,0.3611,0.3616,0.3709,0.3721,0.3789,0.3787,0.378,0.3702,0.3782,0.3658,0.3633,0.342,0.3388,0.3744,0.3736,0.3817,0.3817,0.3817,0.3817,0,0.3237,0.3318,0.3364,0.3444,0.3453,0.3457,0.348,0.3485,0.3547,0.3567,0.3595,0.3681,0.3683,0.3707,0.3727,0.3684,0.3655,0.3616,0.3332,0.3274,0.3506,0.3501,0.3495,0.3491,0.3487,0.3484,0.3481,0,0.3215,0.3252,0.3335,0.3337,0.3366,0.338,0.3379,0.3442,0.3454,0.3518,0.3523,0.3563,0.3541,0.3505,0.3453,0.3403,0.3539,0.3161,0.315,0.3503,0.3479,0.348,0.3481,0.2864,0.2856,0.285,0.2845,0,0.3147,0.3189,0.3235,0.3254,0.3259,0.3258,0.3273,0.3272,0.3342,0.3327,0.3325,0.3317,0.3299,0.3134,0.3083,0.3035,0.3151,0.3033,0.3482,0.2985,0.2906,0.2883,0.2905,0.279,0.2795,0.2799,0.2802,0.2805,0.3066,0.3083,0.3143,0.3139,0.3135,0.3111,0.3048,0.3068,0.3024,0.2955,0.3078,0.2945,0.2962,0.2732,0.2627,0.2566,0.2798,0.2722,0.2742,0.2769,0.2701,0.2619,0.2434,0.2437,0.244,0.2443,0.2445,0,0.2944,0.2989,0.3001,0.2988,0.2899,0.2964,0.2936,0.282,0.2687,0.2696,0.2622,0.236,0.224,0.2266,0.208,0.2071,0.2058,0.2011,0.2004,0.206,0.211,0.201,0.1559,0.1556,0.1553,0.1551,0,0,0.2886,0.2863,0.289,0.2738,0.271,0.2571,0.2518,0.2368,0.2308,0.211,0.2013,0.212,0.2198,0.1851,0.181,0.1664,0.1845,0.1587,0.2303,0.2353,0.2399,0.2529,0.2439,0,0,0,0,0]},{"header":{"parameterUnit":"m.s-1","parameterCategory":2,"la1":30.2991,"la2":30.254,"lo1":-89.0895,"lo2":-89.0444,"dy":0.0017,"dx":0.0017,"nx":28,"ny":28,"refTime":"2025-05-20T03:00:00:Z","depth":"2","parameterNumber":3,"parameterNumberName":"V-component_of_CURRENTS"},"data":[0,0,0,0,0,0,0,0,0,0,0,0,0,0,0,0,0,0,0,0,0,0,0,0,0,0,0,0,0,0,0,0,0,0,0,0,0,0,0,0,0,0,0,0,0,0,0,0,0,0,0,0,0,0,0,0,0,0,0.0288,0.0288,0,0.0358,0.0359,0.036,0.0372,0.0371,0.037,0.0369,0.037,0.0371,0.0372,0,0,0,0,0,0,0,0,0,0,0,0,0,0.0184,0.0186,0.0288,0.0288,0.0289,0.0358,0.0359,0.0361,0.0372,0.0371,0.037,0.0369,0.037,0.0371,0.0372,0,0,0,0,0,0,0,0,0,0,0,0,0,0.0243,0.0187,0.0287,0.03,0.0302,0.0358,0.0359,0.0361,0.0373,0.0371,0.037,0.0368,0.0369,0.0371,0.0372,0.0409,0,0,0.0376,0.0377,0,0,0,0,0,0,0,0,0.0239,0.0247,0.0298,0.0299,0.0301,0.0352,0.0323,0.0372,0.0373,0.035,0.0369,0.0368,0.0356,0.0358,0.0381,0.0409,0.0409,0.0376,0.0377,0.0377,0.0378,0,0,0,0,0,0,0,0.0235,0.0244,0.0319,0.0298,0.03,0.0309,0.0316,0.0333,0.0362,0.0352,0.0352,0.0354,0.0356,0.038,0.0381,0.0409,0.0376,0.0377,0.0378,0.0379,0.0442,0.0443,0,0,0,0,0,0,0.022,0.0241,0.0317,0.0321,0.0262,0.0312,0.032,0.034,0.0363,0.0365,0.0355,0.0354,0.0378,0.0379,0.0381,0.0425,0.0377,0.0379,0.038,0.0442,0.0443,0.0444,0,0,0,0,0,0,0.0218,0.0227,0.0314,0.0278,0.0289,0.0314,0.0337,0.0342,0.0366,0.0366,0.0366,0.0373,0.0377,0.0379,0.0396,0.0425,0.0379,0.0381,0.044,0.0442,0.0443,0.0514,0,0,0,0,0,0,0.0215,0.0226,0.0243,0.0278,0.029,0.0358,0.0338,0.0344,0.0368,0.0367,0.0382,0.038,0.0376,0.0394,0.0397,0.0426,0.0382,0.0439,0.0441,0.0443,0.051,0.0517,0.0523,0,0,0,0,0,0.0211,0.0242,0.0245,0.0253,0.0312,0.0359,0.0368,0.0382,0.037,0.0396,0.0393,0.038,0.0406,0.0396,0.04,0.0429,0.0439,0.0441,0.0443,0.0507,0.0516,0.0523,0,0,0,0,0,0,0.0218,0.0247,0.025,0.0292,0.0324,0.036,0.0384,0.039,0.0413,0.0407,0.0398,0.0398,0.0423,0.0415,0.0404,0.045,0.0419,0.0421,0.0466,0.0474,0.0481,0.0488,0.0383,0,0,0,0,0,0.0224,0.0247,0.0281,0.0315,0.0332,0.0359,0.038,0.0392,0.0411,0.0421,0.0428,0.0429,0.0437,0.0445,0.0453,0.0485,0.0446,0.0503,0.0509,0.0515,0.0522,0.0482,0.0486,0.045,0.045,0.045,0,0,0.0234,0.0253,0.0267,0.0316,0.0341,0.039,0.037,0.041,0.0446,0.0416,0.0465,0.0456,0.0449,0.0482,0.0493,0.0478,0.0503,0.0518,0.0523,0.0526,0.0485,0.0488,0.0491,0.0451,0.0451,0.0451,0,0,0.0268,0.0287,0.0319,0.0353,0.0391,0.0414,0.0425,0.0468,0.0483,0.0524,0.0505,0.0512,0.0536,0.054,0.0541,0.0589,0.0537,0.0587,0.0632,0.0594,0.0597,0.0598,0.0544,0.054,0.0593,0.0593,0.0593,0,0.0282,0.0332,0.0339,0.0385,0.0421,0.0426,0.0485,0.0508,0.0549,0.0569,0.0545,0.0577,0.0567,0.0602,0.0611,0.0607,0.0562,0.0605,0.0602,0.0603,0.0604,0.0547,0.0542,0.0597,0.0596,0.0596,0.0595,0,0.035,0.0389,0.0414,0.0473,0.0513,0.0564,0.0595,0.0631,0.0639,0.0657,0.0689,0.0672,0.0691,0.0684,0.0661,0.0672,0.063,0.0613,0.0582,0.0612,0.055,0.0544,0.0602,0.06,0.0599,0.0598,0,0,0.0379,0.045,0.046,0.0503,0.0567,0.0613,0.067,0.0734,0.0777,0.0783,0.0834,0.0825,0.0805,0.0803,0.0774,0.0733,0.069,0.0673,0.067,0.0619,0.0583,0.0564,0.0554,0.0662,0.0662,0.0661,0.0535,0,0.0435,0.0532,0.0556,0.0654,0.071,0.074,0.08,0.0848,0.0873,0.092,0.0888,0.0919,0.0854,0.086,0.0813,0.0726,0.0677,0.0725,0.0562,0.0558,0.0538,0.0549,0.0531,0.0418,0.0528,0.0527,0.0526,0,0.0494,0.0552,0.0657,0.075,0.078,0.0839,0.094,0.0994,0.1041,0.1057,0.1066,0.1042,0.1006,0.0939,0.0795,0.0822,0.071,0.0625,0.0618,0.0574,0.0528,0.0409,0.0402,0.0514,0.0515,0.0516,0.0517,0,0.0513,0.062,0.0708,0.0745,0.085,0.0904,0.0966,0.1036,0.1098,0.1143,0.118,0.1131,0.1112,0.0971,0.08,0.0791,0.0619,0.0591,0.0467,0.0463,0.0405,0.0398,0.0483,0.0483,0.0484,0.0484,0.0484,0,0.0563,0.0628,0.0723,0.0774,0.0883,0.0943,0.1057,0.1108,0.1193,0.128,0.1247,0.1282,0.1113,0.1005,0.083,0.0629,0.0641,0.0474,0.0435,0.0429,0.0426,0.0479,0.048,0.0479,0.048,0.0481,0.0482,0,0.0567,0.0628,0.0726,0.0847,0.0891,0.0969,0.1117,0.1206,0.1266,0.1376,0.1395,0.138,0.1243,0.1055,0.0827,0.0679,0.0484,0.0408,0.0406,0.037,0.0341,0.0347,0.0259,0.0258,0.0256,0.0255,0.0254,0,0.0584,0.0635,0.077,0.084,0.0898,0.1021,0.1122,0.1228,0.1336,0.1437,0.1501,0.1419,0.1375,0.1038,0.0759,0.0461,0.0451,0.027,0.0264,0.035,0.032,0.0329,0.0337,0.0198,0.0197,0.0196,0.0195,0,0.061,0.0649,0.0733,0.0881,0.0993,0.1127,0.1278,0.1374,0.1512,0.1581,0.1659,0.1622,0.1336,0.1041,0.066,0.0457,0.032,0.024,0.0322,0.0276,0.0287,0.026,0.027,0.0185,0.0186,0.0187,0.0187,0.0188,0.062,0.0684,0.08,0.0938,0.107,0.1241,0.136,0.1506,0.1651,0.1773,0.1747,0.1675,0.1374,0.0863,0.0537,0.0216,0.0252,0.0133,0.0137,0.0143,0.0178,0.0188,0.0072,0.0072,0.0072,0.0072,0.0072,0,0.0646,0.0737,0.0867,0.1041,0.1184,0.1256,0.148,0.1582,0.1737,0.1807,0.183,0.1505,0.1178,0.0843,0.0357,0.0077,0.0045,-0.0014,0.0014,0.0025,0.0034,0.0065,-0.0073,-0.0074,-0.0075,-0.0076,0,0,0.0674,0.0787,0.0869,0.1104,0.1235,0.1439,0.1568,0.1681,0.1771,0.1803,0.1758,0.1666,0.1269,0.0889,0.0496,0.0224,0.0189,0.0154,0.0298,0.0388,0.0401,0.014,0.0202,0,0,0,0,0]}],[{"header":{"parameterUnit":"m.s-1","parameterCategory":2,"la1":30.2991,"la2":30.254,"lo1":-89.0895,"lo2":-89.0444,"dy":0.0017,"dx":0.0017,"nx":28,"ny":28,"refTime":"2025-05-20T03:00:00:Z","depth":"4","parameterNumber":2,"parameterNumberName":"U-component_of_CURRENTS"},"data":[0,0,0,0,0,0,0,0,0,0,0,0,0,0,0,0,0,0,0,0,0,0,0,0,0,0,0,0,0,0,0,0,0,0,0,0,0,0,0,0,0,0,0,0,0,0,0,0,0,0,0,0,0,0,0,0,0,0,0.0774,0.0774,0,0.066,0.0657,0.0655,0.0604,0.0606,0.0607,0.0609,0.0955,0.0962,0.097,0,0,0,0,0,0,0,0,0,0,0,0,0,0.0795,0.0795,0.0774,0.0774,0.0774,0.066,0.0657,0.0654,0.0604,0.0606,0.0608,0.061,0.0953,0.0962,0.0971,0,0,0,0,0,0,0,0,0,0,0,0,0,0.0729,0.0795,0.0774,0.0748,0.0746,0.0661,0.0657,0.0653,0.0603,0.0606,0.0608,0.0611,0.095,0.0961,0.0972,0.0992,0,0,0.1007,0.1012,0,0,0,0,0,0,0,0,0.0733,0.0726,0.0752,0.075,0.0747,0.0664,0.0792,0.0795,0.0603,0.0639,0.0609,0.0612,0.091,0.0924,0.0866,0.1008,0.1023,0.1008,0.1015,0.102,0.1023,0,0,0,0,0,0,0,0.0737,0.073,0.0712,0.0752,0.0749,0.0691,0.0683,0.0788,0.0757,0.0636,0.0637,0.065,0.091,0.0855,0.0876,0.1028,0.1008,0.1018,0.1025,0.1029,0.1367,0.1369,0,0,0,0,0,0,0.079,0.0735,0.0716,0.071,0.0765,0.069,0.0681,0.0674,0.0746,0.076,0.0648,0.0648,0.0834,0.0862,0.0889,0.1116,0.102,0.103,0.1037,0.1365,0.1367,0.1369,0,0,0,0,0,0,0.0791,0.0789,0.0721,0.0734,0.0724,0.069,0.068,0.0671,0.0669,0.0753,0.0773,0.0666,0.0837,0.0873,0.1101,0.1124,0.1036,0.1046,0.1362,0.1365,0.1368,0.1448,0,0,0,0,0,0,0.0791,0.0789,0.0732,0.0738,0.0726,0.0667,0.068,0.0667,0.0679,0.0679,0.0776,0.0804,0.0842,0.1084,0.1113,0.1138,0.1055,0.1359,0.1364,0.1367,0.1443,0.1453,0.1462,0,0,0,0,0,0.0792,0.0678,0.073,0.0725,0.0672,0.0667,0.0651,0.0626,0.0679,0.0641,0.0812,0.0804,0.1124,0.11,0.1131,0.1159,0.1358,0.1362,0.1367,0.1438,0.1451,0.1462,0,0,0,0,0,0,0.0586,0.0666,0.0721,0.062,0.0668,0.0666,0.0591,0.0657,0.0736,0.0763,0.0893,0.0935,0.1135,0.1143,0.1112,0.126,0.1214,0.1225,0.1256,0.127,0.1279,0.1359,0.1064,0,0,0,0,0,0.0547,0.0538,0.061,0.0544,0.0558,0.061,0.0593,0.0618,0.0716,0.0743,0.0905,0.1032,0.1155,0.1222,0.1332,0.144,0.1441,0.1456,0.1466,0.1475,0.1559,0.1544,0.156,0.1385,0.1385,0.1385,0,0,0.0467,0.0501,0.0496,0.0511,0.0528,0.0559,0.0598,0.0584,0.0669,0.0787,0.0985,0.1118,0.1209,0.1343,0.1418,0.1365,0.1521,0.1481,0.1488,0.1569,0.155,0.1567,0.1583,0.1388,0.1387,0.1387,0,0,0.0355,0.033,0.0328,0.0367,0.0427,0.0468,0.0506,0.0611,0.0687,0.0908,0.1015,0.121,0.1403,0.1474,0.1526,0.1659,0.1607,0.164,0.1731,0.1712,0.1727,0.174,0.1742,0.1755,0.1601,0.1601,0.1601,0,0.0292,0.0278,0.0313,0.0335,0.0378,0.0469,0.0513,0.0575,0.0785,0.092,0.099,0.1404,0.1463,0.1656,0.1688,0.1686,0.1673,0.1675,0.1726,0.1739,0.1751,0.1749,0.1762,0.1606,0.1605,0.1605,0.1604,0,0.0216,0.0215,0.0197,0.0312,0.0342,0.0362,0.0514,0.0632,0.0816,0.0964,0.1301,0.1484,0.1713,0.1728,0.1765,0.1883,0.1847,0.1767,0.1693,0.1773,0.1766,0.1778,0.1612,0.161,0.1609,0.1608,0,0,0.0156,0.0167,0.0182,0.0249,0.0343,0.0389,0.0525,0.0716,0.0882,0.1159,0.1408,0.1687,0.1844,0.1919,0.1994,0.2016,0.2057,0.1934,0.193,0.1938,0.2039,0.1854,0.1848,0.1963,0.1967,0.1969,0.1991,0,0.0151,0.0161,0.0194,0.0284,0.032,0.045,0.0593,0.0776,0.0999,0.1246,0.1494,0.1772,0.1879,0.2024,0.2068,0.2089,0.2099,0.2063,0.1965,0.1965,0.1789,0.186,0.1979,0.2,0.2003,0.2005,0.2006,0,0.0137,0.0146,0.0193,0.0335,0.0375,0.0471,0.074,0.0882,0.1172,0.1353,0.1668,0.1872,0.2102,0.21,0.2261,0.2229,0.2163,0.2161,0.2156,0.1988,0.1804,0.191,0.2027,0.2026,0.2024,0.2023,0.2021,0,0.0126,0.0192,0.0235,0.0271,0.0415,0.0542,0.0677,0.0957,0.114,0.1449,0.1632,0.1937,0.2108,0.2162,0.223,0.2226,0.2292,0.2226,0.2032,0.2017,0.214,0.2126,0.2269,0.2269,0.2269,0.2268,0.2268,0,0.0128,0.0191,0.0247,0.0282,0.0442,0.0555,0.082,0.0985,0.1246,0.1457,0.1718,0.1934,0.2126,0.2218,0.222,0.2189,0.2269,0.2116,0.2023,0.2168,0.2157,0.2147,0.2132,0.2269,0.2269,0.2269,0.2269,0,0.0134,0.0149,0.0224,0.0356,0.0441,0.0571,0.0885,0.1051,0.1301,0.1559,0.1672,0.1932,0.2058,0.2198,0.222,0.2159,0.2133,0.2055,0.2243,0.215,0.1884,0.1873,0.1904,0.1898,0.1892,0.1888,0.1885,0,0.0125,0.0137,0.027,0.0353,0.0443,0.0661,0.0815,0.1067,0.1236,0.1569,0.165,0.1867,0.2023,0.1976,0.2037,0.2031,0.1981,0.1951,0.1958,0.1947,0.1854,0.1851,0.1848,0.1876,0.1875,0.1874,0.1872,0,0.01,0.0147,0.0198,0.0353,0.0509,0.0659,0.0893,0.1009,0.1276,0.1516,0.1669,0.1766,0.1834,0.1879,0.1853,0.1839,0.1992,0.1898,0.191,0.1917,0.1913,0.1826,0.1828,0.1855,0.1857,0.1859,0.186,0,0.0097,0.0118,0.0183,0.035,0.0527,0.0619,0.0742,0.093,0.1103,0.1472,0.148,0.1661,0.1813,0.1769,0.1748,0.1729,0.1724,0.1676,0.17,0.172,0.1643,0.1611,0.1423,0,0,0,0,0,0.0078,0.0102,0.0195,0.0346,0.052,0.0617,0.0783,0.0883,0.1156,0.1237,0.138,0.1459,0.1504,0.1553,0.1497,0.1596,0.1669,0.1515,0.1612,0.1756,0.1777,0.1699,0,0,0,0,0,0,0.006,0.0121,0.0144,0.0313,0.0459,0.059,0.0677,0.0799,0.0876,0.116,0.1188,0.1397,0.1437,0.1569,0.15,0.1508,0.1533,0.1623,0.1618,0.1744,0.1763,0.178,0.1707,0,0,0,0,0]},{"header":{"parameterUnit":"m.s-1","parameterCategory":2,"la1":30.2991,"la2":30.254,"lo1":-89.0895,"lo2":-89.0444,"dy":0.0017,"dx":0.0017,"nx":28,"ny":28,"refTime":"2025-05-20T03:00:00:Z","depth":"4","parameterNumber":3,"parameterNumberName":"V-component_of_CURRENTS"},"data":[0,0,0,0,0,0,0,0,0,0,0,0,0,0,0,0,0,0,0,0,0,0,0,0,0,0,0,0,0,0,0,0,0,0,0,0,0,0,0,0,0,0,0,0,0,0,0,0,0,0,0,0,0,0,0,0,0,0,0.0119,0.0119,0,0.0089,0.0089,0.0088,0.0085,0.0085,0.0086,0.0086,0.005,0.0049,0.0048,0,0,0,0,0,0,0,0,0,0,0,0,0,0.01,0.0101,0.0119,0.0119,0.0118,0.0089,0.0089,0.0088,0.0085,0.0085,0.0086,0.0086,0.005,0.0049,0.0048,0,0,0,0,0,0,0,0,0,0,0,0,0,0.0095,0.0101,0.0119,0.0112,0.011,0.0089,0.0089,0.0088,0.0085,0.0085,0.0086,0.0086,0.005,0.0049,0.0047,0.0034,0,0,0.0042,0.0042,0,0,0,0,0,0,0,0,0.0095,0.0096,0.0113,0.0112,0.0111,0.0089,0.0068,0.0069,0.0085,0.0097,0.0086,0.0086,0.0061,0.0058,0.0055,0.0032,0.003,0.0042,0.0041,0.0041,0.004,0,0,0,0,0,0,0,0.0096,0.0096,0.0109,0.0113,0.0111,0.0084,0.0084,0.0068,0.008,0.0096,0.0095,0.0088,0.0061,0.0057,0.0054,0.003,0.0042,0.0041,0.004,0.0039,-0.0021,-0.0021,0,0,0,0,0,0,0.0099,0.0097,0.011,0.0108,0.0101,0.0084,0.0084,0.0098,0.008,0.0077,0.0088,0.0088,0.006,0.0056,0.0053,0.004,0.0041,0.0039,0.0038,-0.002,-0.0021,-0.0021,0,0,0,0,0,0,0.0099,0.0101,0.0111,0.0099,0.0098,0.0085,0.0099,0.0097,0.0079,0.0074,0.0071,0.007,0.006,0.0055,0.0047,0.0038,0.0038,0.0037,-0.0019,-0.002,-0.0021,0.001,0,0,0,0,0,0,0.0099,0.0102,0.0134,0.01,0.0099,0.0118,0.0098,0.0096,0.0074,0.0074,0.0058,0.0056,0.0059,0.005,0.0046,0.0036,0.0036,-0.0018,-0.002,-0.0021,0.001,0.001,0.0011,0,0,0,0,0,0.0099,0.0147,0.0137,0.0139,0.0138,0.0119,0.0117,0.0107,0.0073,0.0086,0.0066,0.0055,0.0039,0.0049,0.0044,0.0033,-0.0018,-0.0019,-0.0021,0.001,0.001,0.0011,0,0,0,0,0,0,0.0167,0.015,0.0138,0.0182,0.0156,0.0118,0.0142,0.0094,0.0084,0.0081,0.0056,0.0054,0.0044,0.0028,0.0039,0.001,0.0004,0.0002,0.0029,0.0029,0.0029,0.0087,0.0034,0,0,0,0,0,0.0192,0.0208,0.0182,0.0207,0.0213,0.0163,0.0156,0.0126,0.0101,0.0095,0.0061,0.0038,0.0034,0.0025,0.0019,0.0001,-0.0012,-0.0014,-0.0013,-0.0013,0.0029,-0.0009,-0.0007,-0.0026,-0.0026,-0.0026,0,0,0.0227,0.021,0.0226,0.0219,0.0208,0.0207,0.0162,0.0148,0.0112,0.0093,0.005,0.0041,0.0031,0.0026,0.0016,0.0011,-0.0022,-0.0014,-0.0013,0.0029,-0.001,-0.0008,-0.0006,-0.0027,-0.0027,-0.0027,0,0,0.0281,0.0291,0.0326,0.0307,0.0277,0.024,0.0226,0.017,0.0133,0.0088,0.0069,0.007,0.0018,0.0035,0.0033,0.0028,-0.0014,-0.0009,0.0038,-0.0001,0.0001,0.0003,-0.0037,-0.0039,-0.0014,-0.0014,-0.0014,0,0.0316,0.0355,0.0331,0.0343,0.0328,0.025,0.026,0.021,0.0134,0.0106,0.0083,0.0056,0.0038,0.0067,0.0067,0.0035,-0.0005,0.0039,0.0002,0.0004,0.0005,-0.0036,-0.0038,-0.0013,-0.0013,-0.0013,-0.0013,0,0.0391,0.0415,0.0433,0.0416,0.0395,0.0389,0.0313,0.026,0.0183,0.0129,0.0115,0.0114,0.0113,0.0085,0.0077,0.0079,0.004,0.0011,0.0008,0.001,-0.0035,-0.0038,-0.0011,-0.0011,-0.0012,-0.0012,0,0,0.046,0.0486,0.0491,0.0494,0.0428,0.0415,0.035,0.0291,0.0261,0.0193,0.0175,0.0179,0.018,0.0182,0.017,0.0141,0.01,0.0079,0.0076,0.0053,-0.0003,-0.0008,-0.0013,0.0043,0.0043,0.0044,-0.0048,0,0.0518,0.0572,0.0554,0.0566,0.0578,0.0488,0.0445,0.0364,0.0286,0.0242,0.0226,0.0233,0.0211,0.0237,0.0201,0.0139,0.0097,0.0128,-0.0011,-0.0013,-0.0007,-0.0013,0.0044,-0.005,-0.0051,-0.0051,-0.0051,0,0.0581,0.0601,0.0658,0.0632,0.0638,0.0632,0.0552,0.05,0.0409,0.036,0.0356,0.0331,0.0337,0.0295,0.0217,0.0225,0.0125,0.006,0.0053,0.0052,-0.0022,-0.0048,-0.0057,-0.0057,-0.0056,-0.0056,-0.0055,0,0.0609,0.0654,0.0704,0.07,0.0676,0.0675,0.0641,0.0548,0.0521,0.0458,0.0459,0.043,0.0442,0.0335,0.0219,0.0201,0.0089,0.0041,-0.0054,-0.0057,-0.0038,-0.0038,-0.0035,-0.0035,-0.0035,-0.0035,-0.0034,0,0.0622,0.0667,0.0745,0.076,0.0818,0.0754,0.0786,0.0717,0.0666,0.065,0.0568,0.057,0.0446,0.0361,0.0231,0.0098,0.0099,-0.0022,-0.007,-0.0029,-0.0028,-0.0042,-0.0041,-0.0038,-0.0037,-0.0037,-0.0036,0,0.0612,0.0677,0.0748,0.0799,0.0836,0.0863,0.0898,0.09,0.0839,0.0816,0.0814,0.0683,0.0562,0.0427,0.0241,0.0137,-0.0004,-0.0067,0.0002,-0.0045,-0.0134,-0.0132,-0.0171,-0.0171,-0.0172,-0.0172,-0.0173,0,0.0607,0.0649,0.0799,0.087,0.0912,0.098,0.1021,0.099,0.0968,0.0877,0.0853,0.075,0.0648,0.0408,0.0236,0.0008,-0.0038,-0.0108,-0.0117,-0.0099,-0.0144,-0.014,-0.0136,-0.0174,-0.0174,-0.0174,-0.0174,0,0.0579,0.0671,0.0745,0.0888,0.0991,0.1064,0.1097,0.1108,0.1031,0.1049,0.09,0.0758,0.0601,0.0396,0.0229,0.0053,-0.0049,-0.0115,-0.0116,-0.0125,-0.0104,-0.0146,-0.0142,-0.0176,-0.0176,-0.0176,-0.0176,0,0.0581,0.0647,0.0766,0.0868,0.1025,0.1047,0.1085,0.1062,0.1053,0.0958,0.092,0.0739,0.066,0.0415,0.0251,0.0101,0.0045,-0.0009,-0.0017,-0.0016,0.0056,0.0106,0.0076,0,0,0,0,0,0.0556,0.061,0.0714,0.0832,0.098,0.1023,0.1082,0.1088,0.1092,0.1006,0.0949,0.0796,0.0535,0.042,0.0268,0.0205,-0.0001,0.0018,-0.0073,-0.0188,-0.0186,-0.0127,0,0,0,0,0,0,0.0546,0.0651,0.0681,0.0764,0.0836,0.0937,0.0968,0.0952,0.0893,0.0902,0.0778,0.0763,0.0522,0.0633,0.0267,0.022,0.014,-0.0076,-0.008,-0.019,-0.0187,-0.0185,-0.0125,0,0,0,0,0]}]]